Location: Newark
(40.6500°N, 120.5800°W)
Time: 14:38:01
(UTC+00:00)

Envisat - Visible Passes

Search period start: 20 August 2019 00:00
Search period end: 30 August 2019 00:00
Orbit: 764 x 766 km, 98.1° (Epoch: 19 August)

Date Brightness Start Highest point End Pass type
(mag) Time Alt. Az. Time Alt. Az. Time Alt. Az.
20 Aug 5.8 03:33:47 10° SW 03:37:05 17° W 03:40:23 10° NW visible
23 Aug 5.7 03:21:51 10° SW 03:25:44 22° W 03:29:37 10° NW visible
25 Aug 6.1 03:49:35 10° WSW 03:51:31 12° W 03:53:27 10° WNW visible
26 Aug 5.3 03:10:06 10° SSW 03:14:23 27° W 03:18:43 10° NW visible
28 Aug 5.9 03:37:08 10° SW 03:40:08 16° W 03:43:09 10° NW visible
29 Aug 4.9 02:58:28 10° SSW 03:03:04 35° W 03:07:43 10° NNW visible
